Location: Unspecified
(0.0000°N, 0.0000°E)
Time: 05:31:55
(UTC+00:00)

AAUSAT3 - Visible Passes

Search period start: 08 June 2023 00:00
Search period end: 18 June 2023 00:00
Orbit: 761 x 777 km, 98.4° (Epoch: 07 June)

Date Brightness Start Highest point End Pass type
(mag) Time Alt. Az. Time Alt. Az. Time Alt. Az.
08 Jun ? 05:24:14 10° ESE 05:26:35 13° ENE 05:28:56 10° NE visible
08 Jun ? 19:34:18 10° NW 19:36:59 14° WNW 19:39:41 10° WSW visible
09 Jun ? 18:56:45 10° N 19:01:29 39° WNW 19:06:13 10° SW visible
10 Jun ? 18:20:52 10° NNE 18:25:57 74° ESE 18:31:02 10° S visible
11 Jun ? 05:18:06 10° E 05:18:48 10° ENE 05:19:31 10° ENE visible
11 Jun ? 19:25:49 10° NW 19:29:13 18° WNW 19:32:36 10° WSW visible
12 Jun ? 18:48:47 10° N 18:53:41 49° WNW 18:58:36 10° SSW visible
14 Jun ? 19:17:32 10° NNW 19:21:24 22° WNW 19:25:18 10° SW visible
15 Jun ? 18:40:52 10° N 18:45:52 62° WNW 18:50:54 10° SSW visible
17 Jun ? 19:09:19 10° NNW 19:13:36 28° WNW 19:17:53 10° SW visible
